[Iaude] MPEC L21: 2024 LB [a=1.26,e=0.19,i=7.6,H=27.4]

mpec at cfa.harvard.edu mpec at cfa.harvard.edu
Sun Jun 2 02:17:52 EDT 2024


M.P.E.C. 2024-L21                                  Issued 2024 June 2, 06:16 UT

     The Minor Planet Electronic Circulars contain information on unusual
         minor planets, routine data on comets and natural satellites,
         and occasional editorial announcements.  They are published
    on behalf of Division F of the International Astronomical Union by the
          Minor Planet Center, Smithsonian Astrophysical Observatory,
                          Cambridge, MA 02138, U.S.A.
			  
             Prepared using the Tamkin Foundation Computer Network

                              MPC at CFA.HARVARD.EDU
            URL https://www.minorplanetcenter.net/    ISSN 1523-6714

                                    2024 LB                                     


Observations:
     K24L00B*1C2024 06 01.18668715 01 19.038-14 16 21.76         19.79GVEL021G96
     K24L00B 1C2024 06 01.19238515 01 26.994-14 14 36.71         20.50GVEL021G96
     K24L00B 1C2024 06 01.19810215 01 35.022-14 12 50.54         20.30GVEL021G96
     K24L00B 1C2024 06 01.20381815 01 42.906-14 11 05.35         20.12GVEL021G96
     K24L00B 1C2024 06 01.22785315 02 16.332-14 03 40.18         19.96GVEL021G96
     K24L00B 1C2024 06 01.22905015 02 17.970-14 03 17.50         20.31GVEL021G96
     K24L00B 1C2024 06 01.23024615 02 19.658-14 02 55.57         20.37GVEL021G96
     K24L00B 1C2024 06 01.23144315 02 21.304-14 02 33.68         20.03GVEL021G96
     K24L00B  C2024 06 01.27440815 03 19.294-13 49 21.04         19.9 GVEL021H01
     K24L00B  C2024 06 01.27794115 03 24.194-13 48 14.99         20.1 GVEL021H01
     K24L00B  C2024 06 01.29038215 03 41.447-13 44 22.50         20.0 GVEL021H01
     K24L00B  C2024 06 01.29507215 03 47.957-13 42 54.71         20.2 GVEL021H01
     K24L00B KC2024 06 01.31437515 04 15.964-13 36 47.74         19.72GVEL021I52
     K24L00B KC2024 06 01.31519915 04 17.094-13 36 31.90         20.14GVEL021I52
     K24L00B KC2024 06 01.31602715 04 18.246-13 36 16.31         20.03GVEL021I52
     K24L00B KB2024 06 01.89459115 18 44.71 -10 42 05.5          19.5 GXEL021958
     K24L00B KB2024 06 01.90363215 18 56.02 -10 39 29.3          20.1 GXEL021I93
     K24L00B KB2024 06 01.91084715 19 05.28 -10 37 21.6                XEL021I93
     K24L00B KB2024 06 01.91713615 19 13.43 -10 35 29.8          19.8 GXEL021I93
     K24L00B KB2024 06 02.03640515 21 46.29 -10 00 11.3          19.3 GXEL021958
     K24L00B KB2024 06 02.04176015 21 53.08 -09 58 37.5          19.3 GXEL021958
     K24L00B KC2024 06 02.19882615 25 45.66 -09 12 23.2          19.7 GXEL021858
     K24L00B KC2024 06 02.20564715 25 54.01 -09 10 25.7          19.6 GXEL021858
     K24L00B KC2024 06 02.21253315 26 02.38 -09 08 27.3          19.7 GXEL021858

Observer details:
858 Tebbutt Observatory, Edgewood.  Observer F. B. Zoltowski.  0.51-m f/8.1
    Schmidt-Cassegrain + CCD.
958 Observatoire de Dax.  Observer P. Dupouy.  0.50-m f/4.5 Reflector + CMO.
G96 Mt. Lemmon Survey.  Observer J. B. Fazekas.  Measurers T. Beuden, V. F.
    Carvajal, D. Fay, J. B. Fazekas, D. C. Fuls, A. R. Gibbs, A. D. Grauer, H.
    Groeller, J. K. Hogan, R. A. Kowalski, S. M. Larson, G. J. Leonard, D.
    Rankin, R. L. Seaman, F. C. Shelly, K. W. Wierzchos.  1.5-m reflector +
    10K CCD.
H01 Magdalena Ridge Observatory, Socorro.  Observers W. H. Ryan, E. V. Ryan.
    Measurer W. H. Ryan.  2.4-m f/8.9 Ritchey-Chretien + CCD.
I52 Steward Observatory, Mt. Lemmon Station.  Observer K. W. Wierzchos.
    Measurers T. Beuden, V. F. Carvajal, D. Fay, J. B. Fazekas, D. C. Fuls, A.
    R. Gibbs, A. D. Grauer, H. Groeller, J. K. Hogan, R. A. Kowalski, S. M.
    Larson, G. J. Leonard, D. Rankin, R. L. Seaman, F. C. Shelly, K. W.
    Wierzchos.  1.0-m prime focus + CCD.
I93 St Pardon de Conques.  Observer F. Losse.  0.40-m f/3.7 reflector + CMO.

Orbital elements:
2024 LB                                                  Earth MOID = 0.0169 AU
Epoch 2024 Mar. 31.0 TT = JDT 2460400.5                 MPC                     
M 333.85239              (2000.0)            P               Q                  
n   0.69586769     Peri.  334.77623     -0.70614199     +0.69697571             
a   1.2612028      Node   250.01390     -0.62504096     -0.69642259             
e   0.1940321      Incl.    7.63457     -0.33269700     -0.17093986             
P   1.42           H   27.48          G   0.15           U   7                  
Residuals in seconds of arc
240601 G96  0.3+  0.5-    240601 H01  0.0   0.0     240601 I93  0.2-  0.1-
240601 G96  0.0   0.5-    240601 H01  0.0   0.1+    240601 I93  0.9-  0.2-
240601 G96  0.7+  0.1+    240601 H01  0.0   0.1-    240601 I93  0.1-  0.3+
240601 G96  0.6-  0.3-    240601 H01  0.0   0.1-    240602 958  0.9+  0.2+
240601 G96  0.1-  0.1+    240601 I52  0.1+  0.2-    240602 958  0.3-  1.0-
240601 G96  0.4-  0.6+    240601 I52  0.1-  0.2+    240602 858  0.3-  0.4+
240601 G96  0.1+  0.3+    240601 I52  0.0   0.2+    240602 858  0.1+  0.3+
240601 G96  0.1-  0.0     240601 958  0.0   0.2-    240602 858  0.2-  0.0

Ephemeris:
2024 LB                  a,e,i = 1.26, 0.19, 8                   q = 1.0165
Date    TT    R. A. (2000) Decl.     Delta      r    Elong.  Phase     V
2024 05 03    08 11 29.2 -38 32 59   0.08120 1.0171    94.1    81.4    24.9
...
2024 05 18    09 23 27.7 -41 27 47   0.04199 1.0195    99.9    77.8    23.4
...
2024 05 26    11 49 42.0 -38 52 00   0.02396 1.0258   121.8    57.1    21.5
...
2024 06 01    14 56 17.8 -15 09 33   0.02051 1.0327   155.4    24.2    20.2
2024 06 02    15 21 05.3 -10 05 45   0.02144 1.0340   157.5    22.1    20.3
2024 06 03    15 42 47.8 -05 26 34   0.02274 1.0354   157.5    22.0    20.4
...
2024 06 09    17 03 56.2 +11 49 25   0.03553 1.0445   145.2    33.7    21.7
...
2024 06 17    17 48 29.7 +19 20 39   0.05787 1.0591   137.3    40.6    23.0
...
2024 07 02    18 18 46.9 +21 24 41   0.1042  1.0930   135.1    41.0    24.4

A. U. Tomatic                (C) Copyright 2024 MPC           M.P.E.C. 2024-L21





More information about the Iaude mailing list